Volver al catálogo

ARIANE 40 R/B

ActivoPO
NORAD 25979·ROCKET BODY·🇫🇷 France

Lanzado Dec 3, 1999 desde Guiana Space Centre

Loading…

Próximos Pases (próximas 24 horas)

TLE

ActualizadoSource: Space-Track

Época: Sep 14, 2026, 06:19 UTC

1 25979U 99064C   26257.26386643  .00015245  00000-0  41283-3 0  9998
2 25979  98.1618 359.3101 0004292 138.3508 221.8062 15.37781178457605

Sigue ARIANE 40 R/B en tiempo real con AllMySat

Download on the App Store